7 * 24
多渠道服务支持
ONEWEB-0697 是 OneWeb 卫星星座计划中的一颗低轨通信卫星,旨在为全球提供高速互联网服务。该卫星采用标准化设计,由阿丽亚娜集团制造,搭载先进通信载荷,支持全球偏远地区的宽带接入。作为 OneWeb 扩展其卫星网络的一部分,ONEWEB-0697 于近期成功发射,进一步增强其在低轨卫星通信领域的服务能力。该星座致力于实现全球覆盖,推动数字包容与连接。
英国
(GB)
| 数据来源 | 国际轨道数据 |
| 星历时间: | 2025-10-30T05:14:01+0800 8小时前 查看轨道信息 |
| 半长轴: | 7595.816km |
| 偏心率: | 0.000242 |
| 轨道倾角: | 87.884° |
| 近地点辐角 | 96.539° |
| 升交点赤经 | 66.938° |
| 平近点角 | 263.602° |
| 近地点: | 1215.842km |
| 远地点: | 1219.52km |
| 周期: | 109.805分钟 |
| 每日圈数: | 13.11418 |